Change the Weather History Date:

Sunday, November 27, 2011

  Actual Average Record
Temperature  
Mean Temperature 52 °F -  
Max Temperature 57 °F 49 °F 70 °F (1990)
Min Temperature 48 °F 31 °F 12 °F (1977)
Degree Days  
Heating Degree Days 12    
Growing Degree Days 2 (Base 50)    
Moisture  
Dew Point 50 °F    
Average Humidity 87    
Maximum Humidity 100    
Minimum Humidity 56    
Precipitation  
Precipitation 0.84 in - - ()
Sea Level Pressure  
Sea Level Pressure 29.91 in    
Wind  
Wind Speed 10 mph (SW)    
Max Wind Speed 18 mph    
Max Gust Speed 31 mph    
Visibility 7 miles    
Events Rain    
Averages and records for this station are not official NWS values.
T = Trace of Precipitation, MM = Missing Value Source: NWS Daily Summary

Daily Weather History Graph

Daily Weather History Graph

Search for Another Location

Airport or City:

Trip Planner

Search our weather history database for the weather conditions in past years. The results will help you decide how hot, cold, wet, or windy it might be!

Date:

Astronomy

Nov. 27, 2011 Rise Set
Actual Time 7:28 AM EST 5:07 PM EST
Civil Twilight 6:58 AM EST 5:37 PM EST
Nautical Twilight 6:25 AM EST 6:10 PM EST
Astronomical Twilight 5:52 AM EST 6:43 PM EST
Moon 9:52 AM EST (11/27) 7:45 PM EST (11/27)
Length of Visible Light 10h 39m
Length of Day
9h 39m
Waxing Crescent, 8% of the Moon is Illuminated
Nov 27
Waxing Crescent
Dec 2
First Quarter
Dec 10
Full
Dec 17
Last Quarter
Dec 24
New

Hourly Weather History & Observations

Time (EST) Temp. Dew Point Humidity Pressure Visibility Wind Dir Wind Speed Gust Speed Precip Events Conditions
12:53 AM 57.0 °F 42.1 °F 57% 29.97 in 10.0 mi South 11.5 mph - N/A   Clear
1:53 AM 57.9 °F 42.1 °F 56% 29.95 in 10.0 mi South 9.2 mph - N/A   Overcast
2:53 AM 57.9 °F 42.1 °F 56% 29.94 in 10.0 mi South 11.5 mph - N/A   Overcast
3:53 AM 57.0 °F 43.0 °F 59% 29.92 in 10.0 mi South 9.2 mph - N/A   Overcast
4:53 AM 57.0 °F 44.1 °F 62% 29.92 in 10.0 mi South 10.4 mph - N/A   Overcast
5:53 AM 53.1 °F 46.9 °F 80% 29.93 in 6.0 mi SSE 8.1 mph - 0.03 in Rain Light Rain
6:53 AM 53.1 °F 50.0 °F 89% 29.93 in 4.0 mi South 11.5 mph - 0.08 in Rain Rain
7:53 AM 53.1 °F 51.1 °F 93% 29.93 in 5.0 mi South 10.4 mph - 0.15 in Rain Rain
8:53 AM 52.0 °F 48.9 °F 89% 29.92 in 4.0 mi SE 8.1 mph - 0.08 in Rain Rain
9:35 AM 51.8 °F 50.0 °F 94% 29.92 in 2.5 mi SSE 5.8 mph - 0.11 in Rain Rain
9:45 AM 51.8 °F 50.0 °F 94% 29.92 in 3.0 mi South 9.2 mph - 0.14 in Rain Rain
10:53 AM 54.0 °F 51.1 °F 90% 29.91 in 10.0 mi SSE 11.5 mph - 0.02 in   Overcast
11:53 AM 54.0 °F 51.1 °F 90% 29.90 in 8.0 mi SSE 10.4 mph - 0.00 in Rain Light Rain
12:53 PM 57.9 °F 51.1 °F 78% 29.87 in 10.0 mi South 13.8 mph - 0.01 in Rain Light Rain
1:27 PM 57.2 °F 51.8 °F 82% 29.87 in 10.0 mi South 9.2 mph 18.4 mph 0.00 in   Overcast
1:51 PM 57.2 °F 51.8 °F 82% 29.86 in 10.0 mi South 12.7 mph 20.7 mph 0.00 in   Overcast
1:53 PM 57.9 °F 52.0 °F 81% 29.86 in 10.0 mi South 15.0 mph 20.7 mph 0.00 in   Overcast
2:53 PM 57.9 °F 54.0 °F 87% 29.86 in 4.0 mi SSW 18.4 mph 26.5 mph N/A   Overcast
3:00 PM 57.2 °F 55.4 °F 94% 29.86 in 2.0 mi SSW 18.4 mph 26.5 mph N/A   Overcast
3:09 PM 57.2 °F 55.4 °F 94% 29.85 in 2.5 mi SSW 18.4 mph 31.1 mph 0.01 in Rain Light Rain
3:17 PM 57.2 °F 55.4 °F 94% 29.85 in 9.0 mi SSW 16.1 mph 26.5 mph 0.01 in   Overcast
3:53 PM 57.0 °F 54.0 °F 89% 29.85 in 9.0 mi South 9.2 mph - 0.01 in   Overcast
4:53 PM 57.0 °F 54.0 °F 89% 29.87 in 10.0 mi South 8.1 mph - 0.00 in Rain Light Rain
5:14 PM 57.2 °F 53.6 °F 88% 29.88 in 10.0 mi South 8.1 mph - 0.01 in Rain Light Rain
5:53 PM 57.0 °F 55.0 °F 93% 29.89 in 6.0 mi SSW 9.2 mph - 0.05 in Rain Rain
6:13 PM 55.4 °F 53.6 °F 94% 29.91 in 2.5 mi West 8.1 mph - 0.06 in Rain Heavy Rain
6:22 PM 53.6 °F 53.6 °F 100% 29.92 in 4.0 mi West 6.9 mph - 0.08 in Rain Rain
6:34 PM 53.6 °F 51.8 °F 94% 29.92 in 3.0 mi West 4.6 mph - 0.11 in Rain Rain
6:46 PM 53.6 °F 51.8 °F 94% 29.93 in 4.0 mi WSW 5.8 mph - 0.14 in Rain Rain
6:53 PM 53.1 °F 52.0 °F 96% 29.93 in 4.0 mi West 4.6 mph - 0.16 in Rain Rain
7:44 PM 51.8 °F 50.0 °F 94% 29.93 in 7.0 mi West 5.8 mph - 0.06 in Rain Light Rain
7:53 PM 52.0 °F 50.0 °F 93% 29.93 in 10.0 mi West 3.5 mph - 0.06 in Rain Light Rain
8:01 PM 51.8 °F 50.0 °F 94% 29.93 in 9.0 mi West 4.6 mph - 0.01 in Rain Light Rain
8:53 PM 51.1 °F 50.0 °F 96% 29.93 in 8.0 mi West 5.8 mph - 0.05 in Rain Light Rain
9:18 PM 51.8 °F 48.2 °F 88% 29.93 in 6.0 mi WNW 3.5 mph - 0.02 in Rain Light Rain
9:30 PM 50.0 °F 48.2 °F 94% 29.93 in 6.0 mi NW 4.6 mph - 0.02 in Rain Light Rain
9:53 PM 50.0 °F 48.9 °F 96% 29.94 in 6.0 mi NW 5.8 mph - 0.03 in Rain Light Rain
10:17 PM 48.2 °F 48.2 °F 100% 29.94 in 6.0 mi NW 8.1 mph - 0.01 in Rain Light Rain
10:53 PM 48.9 °F 46.9 °F 93% 29.96 in 4.0 mi NW 6.9 mph - 0.05 in Rain Light Rain
11:25 PM 48.2 °F 46.4 °F 93% 29.96 in 4.0 mi NW 6.9 mph - 0.03 in Rain Light Rain
11:53 PM 48.0 °F 46.9 °F 96% 29.96 in 5.0 mi NNW 8.1 mph - 0.06 in Rain Light Rain